• In Hungary
  • List of Countries
  • For 7 days
  • Water Temperature
  • Satellite Maps
  • Weather Map
  • News
  • Weather Widgets
  • user-avatar
    Login

    Hourly Weather Pozuelo de Alarcon

    Today, 19 September, Wednesday

    Time Temperature Precipitation Wind Pressure Humidity
    00:00 +24°C° 0 mm 1 mps 704 mmHg 49%
    01:00 +24°C° 0 mm 1 mps 704 mmHg 50%
    02:00 +24°C° 0 mm 1 mps 704 mmHg 52%
    03:00 +23°C° 0 mm 1 mps 704 mmHg 53%
    04:00 +23°C° 0 mm 1 mps 704 mmHg 54%
    05:00 +22°C° 0 mm 1 mps 705 mmHg 54%
    06:00 +22°C° 0 mm 1 mps 705 mmHg 55%
    07:00 +24°C° 0 mm 1 mps 705 mmHg 50%
    08:00 +25°C° 0 mm 1 mps 706 mmHg 45%
    09:00 +27°C° 0 mm 1 mps 706 mmHg 40%
    10:00 +28°C° 0 mm 1 mps 706 mmHg 37%
    11:00 +29°C° 0 mm 1 mps 706 mmHg 34%
    12:00 +30°C° 0 mm 1 mps 706 mmHg 31%
    13:00 +31°C° 0 mm 1 mps 706 mmHg 30%
    14:00 +31°C° 0 mm 1 mps 706 mmHg 28%
    15:00 +31°C° 0 mm 1 mps 705 mmHg 27%
    16:00 +31°C° 0 mm 1 mps 705 mmHg 28%
    17:00 +30°C° 0 mm 1 mps 705 mmHg 29%
    18:00 +28°C° 0 mm 0 mps 705 mmHg 31%
    19:00 +29°C° 0 mm 1 mps 705 mmHg 32%
    20:00 +28°C° 0 mm 1 mps 706 mmHg 34%
    21:00 +27°C° 0 mm 1 mps 706 mmHg 35%
    22:00 +26°C° 0 mm 1 mps 706 mmHg 37%
    23:00 +26°C° 0 mm 1 mps 706 mmHg 38%

    Tomorrow, 20 September, Thursday

    Time Temperature Precipitation Wind Pressure Humidity
    00:00 +25°C° 0 mm 1 mps 705 mmHg 39%
    01:00 +25°C° 0 mm 1 mps 705 mmHg 42%
    02:00 +24°C° 0 mm 1 mps 705 mmHg 45%
    03:00 +24°C° 0 mm 1 mps 705 mmHg 48%
    04:00 +23°C° 0 mm 1 mps 705 mmHg 51%
    05:00 +23°C° 0 mm 1 mps 705 mmHg 54%
    06:00 +22°C° 0 mm 1 mps 705 mmHg 57%
    07:00 +24°C° 0 mm 2 mps 705 mmHg 53%
    08:00 +25°C° 0 mm 2 mps 705 mmHg 49%
    09:00 +27°C° 0 mm 2 mps 706 mmHg 46%
    10:00 +28°C° 0 mm 2 mps 706 mmHg 41%
    11:00 +30°C° 0 mm 2 mps 706 mmHg 36%
    12:00 +31°C° 0 mm 2 mps 705 mmHg 31%
    13:00 +31°C° 0 mm 2 mps 705 mmHg 30%
    14:00 +31°C° 0 mm 2 mps 705 mmHg 28%
    15:00 +31°C° 0 mm 2 mps 704 mmHg 27%
    16:00 +31°C° 0 mm 2 mps 704 mmHg 28%
    17:00 +30°C° 0 mm 2 mps 704 mmHg 28%
    18:00 +30°C° 0 mm 1 mps 704 mmHg 29%
    19:00 +29°C° 0 mm 1 mps 704 mmHg 31%
    20:00 +28°C° 0 mm 1 mps 704 mmHg 32%
    21:00 +27°C° 0 mm 1 mps 704 mmHg 34%
    22:00 +27°C° 0 mm 1 mps 704 mmHg 35%
    23:00 +26°C° 0 mm 1 mps 704 mmHg 36%

    Day after tomorrow, 21 September, Friday

    Time Temperature Precipitation Wind Pressure Humidity
    00:00 +26°C° 0 mm 2 mps 704 mmHg 37%
    01:00 +25°C° 0 mm 2 mps 704 mmHg 38%
    02:00 +24°C° 0 mm 2 mps 704 mmHg 39%
    03:00 +23°C° 0 mm 2 mps 704 mmHg 41%
    04:00 +23°C° 0 mm 2 mps 704 mmHg 41%
    05:00 +23°C° 0 mm 2 mps 704 mmHg 41%
    06:00 +22°C° 0 mm 1 mps 704 mmHg 42%
    07:00 +24°C° 0 mm 1 mps 704 mmHg 38%
    08:00 +26°C° 0 mm 1 mps 705 mmHg 34%
    09:00 +27°C° 0 mm 1 mps 706 mmHg 31%
    10:00 +29°C° 0 mm 1 mps 706 mmHg 28%
    11:00 +30°C° 0 mm 2 mps 706 mmHg 26%
    12:00 +31°C° 0 mm 2 mps 706 mmHg 24%
    13:00 +32°C° 0 mm 2 mps 705 mmHg 22%
    14:00 +32°C° 0 mm 2 mps 705 mmHg 21%
    15:00 +34°C° 0 mm 2 mps 705 mmHg 20%
    16:00 +32°C° 0 mm 2 mps 705 mmHg 20%
    17:00 +31°C° 0 mm 2 mps 705 mmHg 21%
    18:00 +30°C° 0 mm 2 mps 705 mmHg 21%
    19:00 +29°C° 0 mm 2 mps 705 mmHg 21%
    20:00 +27°C° 0 mm 2 mps 706 mmHg 21%
    21:00 +26°C° 0 mm 2 mps 706 mmHg 21%
    22:00 +26°C° 0 mm 2 mps 706 mmHg 24%
    23:00 +25°C° 0 mm 3 mps 706 mmHg 28%

    22 September, Saturday

    Time Temperature Precipitation Wind Pressure Humidity
    00:00 +24°C° 0 mm 3 mps 706 mmHg 32%
    01:00 +22°C° 0 mm 3 mps 706 mmHg 36%
    02:00 +22°C° 0 mm 3 mps 706 mmHg 40%
    03:00 +21°C° 0 mm 2 mps 706 mmHg 44%
    04:00 +21°C° 0 mm 2 mps 706 mmHg 45%
    05:00 +21°C° 0 mm 2 mps 706 mmHg 47%
    06:00 +20°C° 0 mm 2 mps 707 mmHg 48%
    07:00 +23°C° 0 mm 2 mps 707 mmHg 44%
    08:00 +25°C° 0 mm 1 mps 707 mmHg 40%
    09:00 +26°C° 0 mm 1 mps 708 mmHg 36%
    10:00 +28°C° 0 mm 1 mps 708 mmHg 32%
    11:00 +30°C° 0 mm 1 mps 708 mmHg 28%
    12:00 +31°C° 0 mm 1 mps 708 mmHg 24%
    13:00 +32°C° 0 mm 1 mps 708 mmHg 23%
    14:00 +32°C° 0 mm 1 mps 707 mmHg 22%
    15:00 +33°C° 0 mm 1 mps 707 mmHg 20%
    16:00 +32°C° 0 mm 1 mps 707 mmHg 23%
    17:00 +31°C° 0 mm 1 mps 707 mmHg 25%
    18:00 +30°C° 0 mm 1 mps 707 mmHg 27%
    19:00 +29°C° 0 mm 1 mps 707 mmHg 29%
    20:00 +28°C° 0 mm 1 mps 707 mmHg 30%
    21:00 +27°C° 0 mm 1 mps 708 mmHg 32%
    22:00 +26°C° 0 mm 1 mps 708 mmHg 34%
    23:00 +26°C° 0 mm 1 mps 707 mmHg 36%

    23 September, Sunday

    Time Temperature Precipitation Wind Pressure Humidity
    00:00 +25°C° 0 mm 1 mps 707 mmHg 37%
    01:00 +25°C° 0 mm 1 mps 707 mmHg 39%
    02:00 +24°C° 0 mm 1 mps 707 mmHg 41%
    03:00 +24°C° 0 mm 1 mps 707 mmHg 43%
    04:00 +23°C° 0 mm 1 mps 706 mmHg 45%
    05:00 +23°C° 0 mm 1 mps 706 mmHg 46%
    06:00 +22°C° 0 mm 1 mps 706 mmHg 48%
    07:00 +24°C° 0 mm 1 mps 707 mmHg 43%
    08:00 +26°C° 0 mm 1 mps 707 mmHg 39%
    09:00 +28°C° 0 mm 1 mps 707 mmHg 34%
    10:00 +30°C° 0 mm 1 mps 707 mmHg 30%
    11:00 +31°C° 0 mm 2 mps 707 mmHg 26%
    12:00 +34°C° 0 mm 3 mps 707 mmHg 22%
    13:00 +34°C° 0 mm 3 mps 707 mmHg 22%
    14:00 +35°C° 0 mm 3 mps 706 mmHg 21%
    15:00 +35°C° 0 mm 4 mps 706 mmHg 20%
    16:00 +34°C° 0 mm 3 mps 706 mmHg 22%
    17:00 +33°C° 0 mm 3 mps 706 mmHg 24%
    18:00 +31°C° 0 mm 3 mps 706 mmHg 26%
    19:00 +30°C° 0 mm 3 mps 706 mmHg 29%
    20:00 +29°C° 0 mm 3 mps 707 mmHg 32%
    21:00 +27°C° 0 mm 3 mps 707 mmHg 35%
    22:00 +26°C° 0 mm 4 mps 707 mmHg 43%
    23:00 +23°C° 0 mm 5 mps 707 mmHg 51%

    24 September, Monday

    Time Temperature Precipitation Wind Pressure Humidity
    00:00 +22°C° 0 mm 5 mps 707 mmHg 60%
    01:00 +21°C° 0 mm 5 mps 707 mmHg 62%
    02:00 +20°C° 0 mm 6 mps 707 mmHg 64%
    03:00 +19°C° 0 mm 6 mps 707 mmHg 66%
    04:00 +19°C° 0 mm 6 mps 707 mmHg 65%
    05:00 +17°C° 0 mm 6 mps 707 mmHg 65%
    06:00 +16°C° 0 mm 6 mps 708 mmHg 64%
    07:00 +17°C° 0 mm 6 mps 708 mmHg 57%
    08:00 +19°C° 0 mm 6 mps 708 mmHg 51%
    09:00 +20°C° 0 mm 6 mps 708 mmHg 45%
    10:00 +22°C° 0 mm 5 mps 708 mmHg 39%
    11:00 +23°C° 0 mm 5 mps 708 mmHg 32%
    12:00 +26°C° 0 mm 5 mps 708 mmHg 26%
    13:00 +27°C° 0 mm 5 mps 708 mmHg 24%
    14:00 +28°C° 0 mm 5 mps 707 mmHg 22%
    15:00 +28°C° 0 mm 5 mps 707 mmHg 20%
    16:00 +27°C° 0 mm 5 mps 707 mmHg 22%
    17:00 +24°C° 0 mm 6 mps 707 mmHg 23%
    18:00 +23°C° 0 mm 6 mps 707 mmHg 25%
    19:00 +21°C° 0 mm 6 mps 707 mmHg 28%
    20:00 +20°C° 0 mm 6 mps 708 mmHg 30%
    21:00 +17°C° 0 mm 6 mps 708 mmHg 33%
    22:00 +16°C° 0 mm 6 mps 708 mmHg 33%
    23:00 +16°C° 0 mm 5 mps 708 mmHg 34%
    Show more